JMP301 LHPR-EDVK

Flight info

Callsign JMP301
Flight time N/A
Altitude 14000
Route VAMOG DCT BEGLA DCT UBUXI DCT MASUR DCT ADLET DCT DEXIT DCT LALIN L604 RUDNO DCT TABAT DCT ERSIL
Aircraft C208/L-SDFGR/C

Departure

Time 2026-05-06 17:04
Airport Győr-Pér Airport (LHPR)

Arrival

Time N/A
Airport Kassel Airport (EDVK)
Time Latitude Longitude Altitude Speed Heading
2026-05-06 16:57 47.62353 17.80487 435 ft 0 kts 299°
2026-05-06 16:59 47.62354 17.80485 435 ft 2 kts 300°
2026-05-06 17:00 47.62396 17.80493 425 ft 10 kts 34°
2026-05-06 17:00 47.62401 17.80576 435 ft 8 kts 50°
2026-05-06 17:00 47.62487 17.80648 433 ft 21 kts 30°
2026-05-06 17:00 47.62579 17.80727 435 ft 0 kts 29°
2026-05-06 17:02 47.62602 17.80745 428 ft 11 kts 28°
2026-05-06 17:02 47.62707 17.80802 430 ft 18 kts 338°
2026-05-06 17:02 47.62784 17.80633 431 ft 25 kts 300°
2026-05-06 17:02 47.62875 17.80375 423 ft 23 kts 298°
2026-05-06 17:03 47.62891 17.80366 422 ft 0 kts 121°
2026-05-06 17:03 47.62890 17.80367 422 ft 5 kts 121°
2026-05-06 17:03 47.62760 17.80719 432 ft 70 kts 136°
2026-05-06 17:04 47.62468 17.81432 609 ft 90 kts 133°
2026-05-06 17:04 47.62142 17.82285 840 ft 99 kts 131°
2026-05-06 17:04 47.61772 17.83189 1120 ft 102 kts 146°
2026-05-06 17:04 47.61165 17.83624 1439 ft 98 kts 180°
2026-05-06 17:05 47.60528 17.83354 1774 ft 98 kts 212°
2026-05-06 17:05 47.60143 17.82488 2103 ft 108 kts 245°
2026-05-06 17:05 47.60231 17.81336 2483 ft 123 kts 283°
2026-05-06 17:05 47.60802 17.80320 2880 ft 131 kts 303°
2026-05-06 17:06 47.61442 17.79368 3253 ft 130 kts 302°
2026-05-06 17:06 47.62076 17.78421 3617 ft 129 kts 302°
2026-05-06 17:06 47.62713 17.77515 3982 ft 128 kts 304°
2026-05-06 17:06 47.63358 17.76613 4359 ft 127 kts 302°
2026-05-06 17:07 47.63988 17.75711 4740 ft 125 kts 301°
2026-05-06 17:07 47.64472 17.74735 5112 ft 112 kts 280°
2026-05-06 17:07 47.64766 17.73686 5472 ft 111 kts 276°
2026-05-06 17:07 47.65052 17.72601 5838 ft 115 kts 277°
2026-05-06 17:08 47.65364 17.71488 6206 ft 119 kts 279°
2026-05-06 17:08 47.65697 17.70360 6544 ft 120 kts 280°
2026-05-06 17:08 47.66034 17.69232 6898 ft 119 kts 280°
2026-05-06 17:08 47.66369 17.68111 7256 ft 118 kts 280°
2026-05-06 17:09 47.66698 17.67005 7615 ft 116 kts 280°
2026-05-06 17:09 47.67020 17.65919 7981 ft 114 kts 280°
2026-05-06 17:09 47.67338 17.64846 8336 ft 114 kts 280°
2026-05-06 17:09 47.67658 17.63758 8666 ft 116 kts 280°
2026-05-06 17:10 47.67874 17.63027 8877 ft 118 kts 281°
2026-05-06 17:10 47.68207 17.61905 9187 ft 120 kts 281°
2026-05-06 17:10 47.68546 17.60770 9494 ft 121 kts 281°
2026-05-06 17:10 47.68888 17.59627 9804 ft 121 kts 281°
2026-05-06 17:11 47.69230 17.58480 10081 ft 122 kts 282°
2026-05-06 17:11 47.69572 17.57331 10365 ft 121 kts 281°
2026-05-06 17:11 47.69909 17.56203 10648 ft 118 kts 281°
2026-05-06 17:11 47.70235 17.55095 10924 ft 116 kts 281°
2026-05-06 17:12 47.70557 17.53997 11191 ft 116 kts 281°
2026-05-06 17:12 47.70879 17.52903 11463 ft 115 kts 281°
2026-05-06 17:12 47.71199 17.51809 11723 ft 116 kts 281°
2026-05-06 17:12 47.71525 17.50701 11977 ft 118 kts 281°
2026-05-06 17:13 47.71856 17.49581 12232 ft 119 kts 282°
2026-05-06 17:13 47.72192 17.48452 12504 ft 120 kts 282°
2026-05-06 17:13 47.72529 17.47315 12760 ft 120 kts 282°
2026-05-06 17:13 47.72867 17.46177 13017 ft 121 kts 282°
2026-05-06 17:14 47.73205 17.45034 13283 ft 121 kts 282°
2026-05-06 17:14 47.73546 17.43877 13501 ft 124 kts 282°
2026-05-06 17:14 47.73900 17.42680 13665 ft 130 kts 282°
2026-05-06 17:14 47.74275 17.41418 13771 ft 137 kts 283°
2026-05-06 17:15 47.74672 17.40087 13822 ft 146 kts 284°
2026-05-06 17:15 47.75095 17.38683 13825 ft 152 kts 285°
2026-05-06 17:15 47.75535 17.37225 13825 ft 157 kts 285°
2026-05-06 17:15 47.75985 17.35731 13819 ft 160 kts 285°
2026-05-06 17:16 47.76438 17.34217 13813 ft 161 kts 285°
2026-05-06 17:16 47.76889 17.32690 13810 ft 161 kts 284°
2026-05-06 17:16 47.77328 17.31153 13810 ft 162 kts 284°
2026-05-06 17:16 47.77774 17.29609 13810 ft 162 kts 285°
2026-05-06 17:17 47.78218 17.28088 13809 ft 163 kts 285°
2026-05-06 17:17 47.78667 17.26544 13804 ft 162 kts 284°
2026-05-06 17:17 47.79102 17.24995 13805 ft 162 kts 284°
2026-05-06 17:17 47.79534 17.23442 13804 ft 163 kts 284°